User: anonymous   Login
Location: Unspecified
(0.0000°N, 0.0000°E)
Time: 12:38:56
(UTC+00:00)
Language:

Cosmos 1869 - Orbit

View from above orbital plane
View from above orbital plane
View from above satellite
View from above satellite

Ground track
Ground track

The orbit data is extracted from the following two-line orbital elements,

1 18214U 87062A   18169.85027692 -.00000043 +00000-0 -47532-5 0  9998
2 18214 082.5008 096.1984 0014810 033.5514 326.6649 15.07850900662525
Epoch (UTC): 18 June 2018 20:24:23
Eccentricity: 0.0014810
inclination: 82.5008°
perigee height: 532 km
apogee height: 553 km
right ascension of ascending node: 96.1984°
argument of perigee: 33.5514°
revolutions per day: 15.07850900
mean anomaly at epoch: 326.6649°
orbit number at epoch: 66252

The dashed part of the orbit path shows where the satellite is in the earth's shadow,  

DLR